Powrót do katalogu

STARLINK-3903

AktywnyŁącznośćVLEO
NORAD 52462·PAYLOAD·🇺🇸 United States

Wystrzelony May 6, 2022 z Cape Canaveral Space Force Station

Loading…

Następne Przeloty (najbliższe 24 godziny)

TLE

ŚwieżeSource: CelesTrak SupGP

Epoka: Sep 14, 2026, 21:44 UTC

1 52462C 22049M   26257.90604167  .00026721  00000+0  76458-3 0  2578
2 52462  53.1578 279.8546 0001248  92.1410 260.6644 15.35381828    16

Śledź STARLINK-3903 w czasie rzeczywistym z AllMySat

Download on the App Store